N619MA CYDA-CYQH

Flight info

Callsign N619MA
Flight time N/A
Altitude 15000
Route MA DCT AVTAV DCT 61N30 DCT ETNAG
Aircraft C208/L-DFGLORY/C

Departure

Time 2026-04-19 17:39
Airport Dawson City Airport (CYDA)

Arrival

Time N/A
Airport Watson Lake Airport (CYQH)
Time Latitude Longitude Altitude Speed Heading
2026-04-19 17:23 64.04537 -139.12476 1222 ft 0 kts 64°
2026-04-19 17:35 64.04542 -139.12448 1222 ft 5 kts 70°
2026-04-19 17:35 64.04514 -139.12345 1221 ft 9 kts 150°
2026-04-19 17:35 64.04448 -139.12445 1223 ft 17 kts 228°
2026-04-19 17:36 64.04353 -139.12702 1223 ft 25 kts 229°
2026-04-19 17:36 64.04220 -139.13065 1220 ft 31 kts 231°
2026-04-19 17:36 64.04115 -139.13360 1221 ft 21 kts 231°
2026-04-19 17:36 64.04034 -139.13579 1222 ft 20 kts 228°
2026-04-19 17:37 64.03923 -139.13882 1221 ft 30 kts 229°
2026-04-19 17:37 64.03813 -139.14103 1220 ft 11 kts 196°
2026-04-19 17:37 64.03822 -139.14163 1220 ft 3 kts 47°
2026-04-19 17:37 64.03823 -139.14162 1220 ft 0 kts 47°
2026-04-19 17:38 64.03877 -139.14014 1221 ft 35 kts 51°
2026-04-19 17:38 64.04130 -139.13318 1221 ft 77 kts 51°
2026-04-19 17:38 64.04514 -139.12319 1326 ft 88 kts 46°
2026-04-19 17:38 64.04929 -139.11240 1478 ft 92 kts 54°
2026-04-19 17:39 64.05337 -139.10089 1667 ft 93 kts 49°
2026-04-19 17:39 64.05766 -139.08982 1863 ft 92 kts 49°
2026-04-19 17:39 64.06203 -139.07867 2038 ft 97 kts 49°
2026-04-19 17:39 64.06461 -139.06468 2231 ft 101 kts 99°
2026-04-19 17:40 64.06271 -139.04904 2445 ft 104 kts 104°
2026-04-19 17:40 64.06084 -139.03277 2662 ft 108 kts 105°
2026-04-19 17:40 64.05877 -139.01600 2877 ft 111 kts 104°
2026-04-19 17:40 64.05663 -138.99871 3096 ft 115 kts 106°
2026-04-19 17:41 64.05442 -138.98121 3299 ft 116 kts 107°
2026-04-19 17:41 64.05220 -138.96309 3511 ft 118 kts 106°
2026-04-19 17:41 64.04994 -138.94519 3716 ft 119 kts 107°
2026-04-19 17:41 64.04761 -138.92674 3923 ft 122 kts 107°
2026-04-19 17:42 64.04525 -138.90805 4131 ft 123 kts 107°
2026-04-19 17:42 64.04285 -138.88907 4334 ft 125 kts 107°
2026-04-19 17:42 64.04039 -138.86989 4539 ft 126 kts 108°
2026-04-19 17:42 64.03792 -138.85038 4744 ft 129 kts 108°
2026-04-19 17:43 64.03541 -138.83068 4947 ft 129 kts 108°
2026-04-19 17:43 64.03291 -138.81093 5150 ft 130 kts 108°
2026-04-19 17:43 64.03038 -138.79107 5351 ft 130 kts 108°
2026-04-19 17:43 64.02786 -138.77114 5552 ft 131 kts 108°
2026-04-19 17:44 64.02536 -138.75136 5750 ft 131 kts 108°
2026-04-19 17:44 64.02278 -138.73124 5946 ft 132 kts 109°
2026-04-19 17:44 64.02020 -138.71106 6149 ft 132 kts 109°
2026-04-19 17:44 64.01764 -138.69101 6347 ft 132 kts 109°
2026-04-19 17:45 64.01507 -138.67089 6547 ft 132 kts 109°
2026-04-19 17:45 64.01248 -138.65071 6739 ft 133 kts 109°
2026-04-19 17:45 64.00990 -138.63037 6944 ft 134 kts 108°
2026-04-19 17:45 64.00729 -138.60987 7144 ft 135 kts 109°
2026-04-19 17:46 64.00464 -138.58938 7344 ft 135 kts 109°
2026-04-19 17:46 64.00197 -138.56886 7543 ft 135 kts 109°
2026-04-19 17:46 63.99933 -138.54821 7742 ft 136 kts 109°
2026-04-19 17:46 63.99665 -138.52746 7940 ft 136 kts 108°
2026-04-19 17:47 63.99402 -138.50705 8135 ft 136 kts 109°
2026-04-19 17:47 63.99135 -138.48643 8335 ft 135 kts 109°
2026-04-19 17:47 63.98872 -138.46608 8522 ft 134 kts 109°
2026-04-19 17:47 63.98604 -138.44569 8722 ft 134 kts 109°
2026-04-19 17:48 63.98346 -138.42505 8919 ft 135 kts 109°
2026-04-19 17:48 63.98081 -138.40451 9114 ft 135 kts 109°
2026-04-19 17:48 63.97810 -138.38429 9304 ft 134 kts 109°
2026-04-19 17:48 63.97546 -138.36387 9502 ft 137 kts 109°
2026-04-19 17:49 63.97267 -138.34305 9699 ft 137 kts 110°
2026-04-19 17:49 63.96999 -138.32215 9886 ft 137 kts 110°
2026-04-19 17:49 63.96727 -138.30155 10077 ft 135 kts 109°
2026-04-19 17:49 63.96453 -138.28074 10211 ft 139 kts 111°
2026-04-19 17:50 63.96163 -138.25921 10345 ft 145 kts 110°
2026-04-19 17:50 63.95873 -138.23691 10486 ft 148 kts 109°
2026-04-19 17:50 63.95572 -138.21408 10622 ft 152 kts 110°
2026-04-19 17:50 63.95268 -138.19076 10756 ft 155 kts 110°
2026-04-19 17:51 63.94956 -138.16723 10886 ft 155 kts 110°
2026-04-19 17:51 63.94643 -138.14361 11018 ft 158 kts 109°
2026-04-19 17:51 63.94323 -138.11925 11152 ft 164 kts 110°
2026-04-19 17:51 63.93989 -138.09449 11281 ft 162 kts 109°
2026-04-19 17:52 63.93659 -138.06989 11409 ft 164 kts 110°
2026-04-19 17:52 63.93318 -138.04487 11540 ft 167 kts 109°
2026-04-19 17:52 63.92985 -138.01943 11667 ft 167 kts 109°
2026-04-19 17:52 63.92656 -137.99433 11802 ft 169 kts 110°
2026-04-19 17:53 63.92308 -137.96855 11933 ft 171 kts 110°
2026-04-19 17:53 63.91957 -137.94267 12060 ft 172 kts 110°
2026-04-19 17:53 63.91614 -137.91703 12182 ft 168 kts 109°
2026-04-19 17:53 63.91273 -137.89154 12302 ft 168 kts 110°
2026-04-19 17:54 63.90939 -137.86608 12426 ft 169 kts 110°
2026-04-19 17:54 63.90596 -137.84072 12547 ft 168 kts 110°
2026-04-19 17:54 63.90251 -137.81523 12669 ft 170 kts 110°
2026-04-19 17:54 63.89904 -137.78980 12796 ft 172 kts 109°
2026-04-19 17:55 63.89562 -137.76398 12921 ft 172 kts 111°
2026-04-19 17:55 63.89203 -137.73796 13055 ft 174 kts 109°
2026-04-19 17:55 63.88970 -137.72051 13139 ft 173 kts 110°
2026-04-19 17:55 63.88487 -137.68582 13288 ft 170 kts 109°
2026-04-19 17:56 63.88145 -137.65992 13413 ft 173 kts 110°
2026-04-19 17:56 63.87794 -137.63375 13537 ft 174 kts 111°
2026-04-19 17:56 63.87434 -137.60825 13657 ft 170 kts 111°
2026-04-19 17:56 63.87086 -137.58255 13778 ft 170 kts 110°
2026-04-19 17:57 63.86735 -137.55691 13900 ft 170 kts 110°
2026-04-19 17:57 63.86381 -137.53126 14024 ft 171 kts 110°
2026-04-19 17:57 63.86027 -137.50552 14152 ft 172 kts 110°
2026-04-19 17:57 63.85668 -137.47955 14279 ft 173 kts 110°
2026-04-19 17:58 63.85429 -137.46224 14363 ft 173 kts 110°
2026-04-19 17:58 63.85070 -137.43611 14485 ft 174 kts 110°
2026-04-19 17:58 63.84709 -137.40998 14604 ft 172 kts 110°
2026-04-19 17:58 63.84352 -137.38407 14729 ft 173 kts 110°
2026-04-19 17:59 63.83992 -137.35814 14850 ft 172 kts 110°
2026-04-19 17:59 63.83631 -137.33223 14941 ft 174 kts 110°
2026-04-19 17:59 63.83258 -137.30577 14950 ft 182 kts 110°
2026-04-19 17:59 63.82870 -137.27809 14959 ft 187 kts 110°
2026-04-19 18:00 63.82466 -137.24924 14953 ft 195 kts 110°
2026-04-19 18:00 63.82052 -137.21974 14953 ft 198 kts 110°
2026-04-19 18:00 63.81631 -137.18974 14955 ft 202 kts 110°
2026-04-19 18:00 63.81210 -137.15919 14953 ft 204 kts 110°
2026-04-19 18:01 63.80781 -137.12871 14950 ft 203 kts 110°
2026-04-19 18:01 63.80349 -137.09820 14950 ft 204 kts 110°
2026-04-19 18:01 63.79914 -137.06737 14949 ft 206 kts 110°
2026-04-19 18:01 63.79476 -137.03645 14950 ft 208 kts 110°
2026-04-19 18:02 63.79030 -137.00502 14946 ft 209 kts 110°
2026-04-19 18:02 63.78589 -136.97389 14951 ft 207 kts 110°
2026-04-19 18:02 63.78146 -136.94266 14945 ft 208 kts 110°
2026-04-19 18:02 63.77702 -136.91154 14942 ft 207 kts 110°
2026-04-19 18:03 63.77262 -136.88066 14943 ft 205 kts 110°
2026-04-19 18:03 63.76825 -136.85010 14936 ft 203 kts 111°
2026-04-19 18:03 63.76391 -136.81969 14943 ft 205 kts 110°
2026-04-19 18:03 63.75950 -136.78909 14941 ft 206 kts 110°
2026-04-19 18:04 63.75512 -136.75857 14938 ft 207 kts 110°
2026-04-19 18:04 63.75065 -136.72747 14932 ft 207 kts 111°
2026-04-19 18:04 63.74620 -136.69672 14941 ft 207 kts 110°
2026-04-19 18:04 63.74176 -136.66579 14940 ft 207 kts 110°
2026-04-19 18:05 63.73731 -136.63516 14931 ft 204 kts 111°
2026-04-19 18:05 63.73291 -136.60487 14931 ft 203 kts 110°
2026-04-19 18:05 63.72848 -136.57441 14933 ft 205 kts 111°
2026-04-19 18:05 63.72400 -136.54366 14937 ft 207 kts 111°
2026-04-19 18:06 63.71948 -136.51266 14938 ft 208 kts 111°
2026-04-19 18:06 63.71502 -136.48206 14939 ft 208 kts 111°
2026-04-19 18:06 63.71049 -136.45115 14940 ft 207 kts 111°
2026-04-19 18:06 63.70601 -136.42045 14937 ft 205 kts 111°
2026-04-19 18:07 63.69702 -136.35940 14934 ft 205 kts 111°
2026-04-19 18:07 63.69254 -136.32895 14939 ft 205 kts 111°
2026-04-19 18:07 63.68804 -136.29849 14934 ft 204 kts 111°
2026-04-19 18:08 63.68353 -136.26801 14935 ft 205 kts 111°
2026-04-19 18:08 63.67903 -136.23761 14934 ft 205 kts 111°
2026-04-19 18:08 63.67451 -136.20718 14935 ft 205 kts 111°
2026-04-19 18:08 63.66999 -136.17670 14936 ft 205 kts 111°
2026-04-19 18:09 63.66544 -136.14613 14939 ft 206 kts 111°
2026-04-19 18:09 63.66085 -136.11544 14940 ft 207 kts 111°
2026-04-19 18:09 63.65631 -136.08502 14939 ft 207 kts 111°
2026-04-19 18:09 63.65171 -136.05426 14938 ft 207 kts 111°
2026-04-19 18:10 63.64710 -136.02354 14938 ft 207 kts 111°
2026-04-19 18:10 63.64251 -135.99296 14938 ft 206 kts 111°
2026-04-19 18:10 63.63793 -135.96250 14936 ft 205 kts 111°
2026-04-19 18:10 63.63334 -135.93206 14934 ft 205 kts 111°
2026-04-19 18:11 63.62819 -135.90221 14932 ft 203 kts 125°
2026-04-19 18:11 63.61921 -135.87882 14938 ft 194 kts 149°
2026-04-19 18:11 63.60882 -135.85956 14939 ft 194 kts 149°
2026-04-19 18:11 63.59848 -135.83995 14941 ft 195 kts 148°
2026-04-19 18:12 63.58816 -135.82052 14942 ft 197 kts 149°
2026-04-19 18:12 63.57762 -135.80069 14942 ft 198 kts 148°
2026-04-19 18:12 63.56707 -135.78084 14940 ft 197 kts 148°
2026-04-19 18:12 63.55658 -135.76105 14937 ft 197 kts 148°
2026-04-19 18:13 63.54600 -135.74109 14930 ft 200 kts 148°
2026-04-19 18:13 63.53521 -135.72092 14930 ft 203 kts 148°
2026-04-19 18:13 63.52432 -135.70057 14930 ft 204 kts 148°
2026-04-19 18:13 63.51338 -135.68011 14935 ft 205 kts 148°
2026-04-19 18:14 63.50239 -135.65955 14934 ft 206 kts 148°
2026-04-19 18:14 63.49139 -135.63900 14934 ft 206 kts 148°
2026-04-19 18:14 63.48050 -135.61870 14938 ft 206 kts 148°
2026-04-19 18:14 63.46944 -135.59813 14932 ft 205 kts 148°
2026-04-19 18:15 63.45848 -135.57773 14937 ft 206 kts 148°
2026-04-19 18:15 63.44743 -135.55718 14941 ft 206 kts 148°
2026-04-19 18:15 63.43634 -135.53662 14940 ft 207 kts 148°
2026-04-19 18:15 63.42521 -135.51596 14941 ft 208 kts 148°
2026-04-19 18:16 63.41405 -135.49531 14939 ft 209 kts 148°
2026-04-19 18:16 63.40283 -135.47457 14940 ft 210 kts 148°
2026-04-19 18:16 63.39155 -135.45371 14941 ft 210 kts 148°
2026-04-19 18:16 63.38035 -135.43295 14938 ft 209 kts 148°
2026-04-19 18:17 63.36919 -135.41236 14937 ft 207 kts 148°
2026-04-19 18:17 63.35810 -135.39192 14936 ft 207 kts 148°
2026-04-19 18:17 63.34715 -135.37178 14933 ft 207 kts 148°
2026-04-19 18:17 63.33607 -135.35142 14933 ft 206 kts 148°
2026-04-19 18:18 63.32499 -135.33103 14932 ft 207 kts 148°
2026-04-19 18:18 63.31389 -135.31067 14930 ft 206 kts 148°
2026-04-19 18:18 63.30287 -135.29044 14940 ft 206 kts 148°
2026-04-19 18:18 63.29177 -135.27016 14939 ft 207 kts 148°
2026-04-19 18:19 63.28065 -135.24978 14938 ft 207 kts 148°
2026-04-19 18:19 63.26956 -135.22946 14938 ft 206 kts 148°
2026-04-19 18:19 63.25846 -135.20924 14939 ft 207 kts 148°
2026-04-19 18:19 63.24731 -135.18894 14940 ft 207 kts 148°
2026-04-19 18:20 63.23619 -135.16865 14938 ft 206 kts 148°
2026-04-19 18:20 63.22510 -135.14841 14938 ft 206 kts 149°
2026-04-19 18:20 63.21404 -135.12830 14937 ft 206 kts 149°
2026-04-19 18:20 63.20297 -135.10823 14937 ft 205 kts 148°
2026-04-19 18:21 63.19189 -135.08811 14938 ft 206 kts 149°
2026-04-19 18:21 63.18077 -135.06794 14936 ft 206 kts 148°
2026-04-19 18:21 63.16967 -135.04783 14936 ft 205 kts 149°
2026-04-19 18:21 63.15860 -135.02781 14938 ft 206 kts 149°
2026-04-19 18:22 63.14749 -135.00775 14939 ft 207 kts 149°
2026-04-19 18:22 63.13631 -134.98759 14939 ft 207 kts 149°
2026-04-19 18:22 63.12516 -134.96742 14938 ft 206 kts 149°
2026-04-19 18:22 63.11419 -134.94767 14940 ft 206 kts 149°
2026-04-19 18:23 63.10287 -134.92733 14941 ft 208 kts 148°
2026-04-19 18:23 63.09179 -134.90735 14936 ft 207 kts 149°
2026-04-19 18:23 63.08074 -134.88745 14941 ft 204 kts 149°
2026-04-19 18:23 63.06968 -134.86765 14940 ft 206 kts 149°
2026-04-19 18:24 63.05855 -134.84772 14937 ft 206 kts 148°
2026-04-19 18:24 63.04745 -134.82783 14937 ft 205 kts 149°
2026-04-19 18:24 63.03645 -134.80810 14939 ft 202 kts 149°
2026-04-19 18:24 63.02554 -134.78858 14936 ft 201 kts 149°
2026-04-19 18:25 63.01464 -134.76916 14935 ft 202 kts 149°
2026-04-19 18:25 63.00368 -134.74965 14937 ft 203 kts 149°
2026-04-19 18:25 62.99264 -134.72998 14938 ft 204 kts 149°
2026-04-19 18:25 62.98160 -134.71030 14940 ft 204 kts 149°
2026-04-19 18:26 62.97066 -134.69085 14942 ft 205 kts 149°
2026-04-19 18:26 62.95954 -134.67109 14945 ft 206 kts 149°
2026-04-19 18:26 62.94835 -134.65124 14948 ft 207 kts 149°
2026-04-19 18:26 62.93713 -134.63136 14949 ft 207 kts 149°
2026-04-19 18:27 62.92592 -134.61149 14946 ft 207 kts 149°
2026-04-19 18:27 62.91474 -134.59169 14944 ft 205 kts 149°
2026-04-19 18:27 62.90363 -134.57204 14948 ft 206 kts 149°
2026-04-19 18:27 62.89241 -134.55226 14944 ft 207 kts 149°
2026-04-19 18:28 62.88119 -134.53245 14946 ft 207 kts 149°
2026-04-19 18:28 62.87015 -134.51301 14946 ft 206 kts 149°
2026-04-19 18:28 62.85891 -134.49322 14947 ft 207 kts 149°
2026-04-19 18:28 62.84771 -134.47349 14945 ft 206 kts 149°
2026-04-19 18:29 62.83650 -134.45376 14941 ft 205 kts 149°
2026-04-19 18:29 62.82533 -134.43417 14944 ft 205 kts 149°
2026-04-19 18:29 62.81426 -134.41475 14944 ft 204 kts 149°
2026-04-19 18:29 62.80313 -134.39529 14945 ft 205 kts 149°
2026-04-19 18:30 62.79575 -134.38241 14946 ft 207 kts 149°
2026-04-19 18:30 62.78068 -134.35606 14949 ft 208 kts 149°
2026-04-19 18:30 62.76941 -134.33634 14951 ft 208 kts 149°
2026-04-19 18:30 62.75820 -134.31679 14953 ft 209 kts 149°
2026-04-19 18:31 62.74679 -134.29692 14957 ft 211 kts 149°
2026-04-19 18:31 62.73529 -134.27689 14955 ft 212 kts 149°
2026-04-19 18:31 62.72380 -134.25690 14956 ft 211 kts 149°
2026-04-19 18:31 62.71235 -134.23697 14956 ft 211 kts 149°
2026-04-19 18:32 62.70085 -134.21706 14956 ft 210 kts 149°
2026-04-19 18:32 62.68939 -134.19717 14958 ft 211 kts 149°
2026-04-19 18:32 62.67792 -134.17731 14956 ft 211 kts 149°
2026-04-19 18:32 62.66657 -134.15767 14956 ft 211 kts 149°
2026-04-19 18:33 62.65511 -134.13784 14957 ft 211 kts 149°
2026-04-19 18:33 62.64359 -134.11793 14956 ft 211 kts 149°
2026-04-19 18:33 62.63206 -134.09805 14955 ft 211 kts 149°
2026-04-19 18:33 62.62062 -134.07831 14956 ft 210 kts 149°
2026-04-19 18:34 62.60910 -134.05852 14957 ft 212 kts 149°
2026-04-19 18:34 62.59751 -134.03860 14953 ft 212 kts 149°
2026-04-19 18:34 62.58601 -134.01878 14953 ft 210 kts 149°
2026-04-19 18:34 62.57457 -133.99914 14951 ft 210 kts 149°
2026-04-19 18:35 62.56324 -133.97970 14950 ft 210 kts 150°
2026-04-19 18:35 62.55170 -133.96001 14961 ft 213 kts 149°
2026-04-19 18:35 62.54001 -133.94003 14950 ft 214 kts 149°
2026-04-19 18:35 62.52837 -133.92004 14953 ft 213 kts 149°
2026-04-19 18:36 62.51670 -133.90010 14954 ft 214 kts 149°
2026-04-19 18:36 62.50504 -133.88024 14956 ft 214 kts 150°
2026-04-19 18:36 62.49334 -133.86032 14955 ft 214 kts 149°
2026-04-19 18:36 62.48165 -133.84039 14954 ft 214 kts 149°
2026-04-19 18:37 62.47000 -133.82053 14948 ft 212 kts 149°
2026-04-19 18:37 62.45849 -133.80095 14946 ft 209 kts 150°
2026-04-19 18:37 62.44706 -133.78156 14945 ft 209 kts 150°
2026-04-19 18:37 62.43558 -133.76215 14945 ft 211 kts 150°
2026-04-19 18:38 62.42400 -133.74255 14947 ft 212 kts 150°
2026-04-19 18:38 62.41238 -133.72287 14951 ft 212 kts 150°
2026-04-19 18:38 62.40078 -133.70323 14948 ft 212 kts 150°
2026-04-19 18:38 62.38922 -133.68365 14943 ft 210 kts 150°
2026-04-19 18:39 62.37777 -133.66434 14944 ft 209 kts 150°
2026-04-19 18:39 62.36627 -133.64504 14946 ft 210 kts 150°
2026-04-19 18:39 62.35480 -133.62577 14946 ft 213 kts 150°
2026-04-19 18:39 62.34331 -133.60632 14949 ft 206 kts 150°
2026-04-19 18:40 62.33199 -133.58729 14950 ft 206 kts 150°
2026-04-19 18:40 62.32059 -133.56823 14946 ft 209 kts 150°
2026-04-19 18:40 62.30918 -133.54903 14956 ft 208 kts 150°
2026-04-19 18:40 62.29764 -133.52985 14958 ft 211 kts 150°
2026-04-19 18:41 62.28600 -133.51035 14960 ft 212 kts 150°
2026-04-19 18:41 62.27436 -133.49081 14958 ft 213 kts 150°
2026-04-19 18:41 62.26268 -133.47129 14959 ft 213 kts 150°
2026-04-19 18:41 62.25102 -133.45183 14959 ft 212 kts 150°
2026-04-19 18:42 62.23934 -133.43235 14959 ft 212 kts 150°
2026-04-19 18:42 62.22770 -133.41297 14959 ft 211 kts 150°
2026-04-19 18:42 62.21621 -133.39382 14958 ft 212 kts 149°
2026-04-19 18:42 62.20626 -133.37011 14953 ft 218 kts 127°
2026-04-19 18:43 62.19769 -133.34338 14954 ft 217 kts 129°
2026-04-19 18:43 62.18885 -133.31713 14954 ft 217 kts 130°
2026-04-19 18:43 62.18002 -133.29081 14956 ft 217 kts 129°
2026-04-19 18:43 62.17422 -133.27340 14956 ft 217 kts 129°
2026-04-19 18:44 62.16539 -133.24695 14957 ft 218 kts 129°
2026-04-19 18:44 62.15657 -133.22056 14959 ft 218 kts 129°
2026-04-19 18:44 62.14486 -133.18564 14960 ft 218 kts 129°
2026-04-19 18:44 62.13601 -133.15918 14961 ft 219 kts 129°
2026-04-19 18:45 62.12714 -133.13279 14959 ft 218 kts 129°
2026-04-19 18:45 62.12116 -133.11497 14960 ft 218 kts 129°
2026-04-19 18:45 62.11240 -133.08893 14959 ft 219 kts 129°
2026-04-19 18:45 62.10351 -133.06256 14958 ft 218 kts 129°
2026-04-19 18:46 62.09466 -133.03624 14959 ft 218 kts 129°
2026-04-19 18:46 62.08577 -133.00987 14959 ft 219 kts 129°
2026-04-19 18:46 62.07683 -132.98345 14960 ft 219 kts 129°
2026-04-19 18:46 62.06789 -132.95703 14961 ft 220 kts 129°
2026-04-19 18:47 62.05893 -132.93054 14960 ft 220 kts 129°
2026-04-19 18:47 62.04997 -132.90414 14959 ft 219 kts 129°
2026-04-19 18:47 62.04105 -132.87780 14956 ft 218 kts 129°
2026-04-19 18:47 62.03216 -132.85164 14955 ft 218 kts 129°
2026-04-19 18:48 62.02329 -132.82556 14952 ft 217 kts 129°
2026-04-19 18:48 62.01454 -132.79985 14950 ft 218 kts 128°
2026-04-19 18:48 62.00569 -132.77384 14947 ft 216 kts 129°
2026-04-19 18:48 61.99683 -132.74792 14945 ft 217 kts 129°
2026-04-19 18:49 61.98795 -132.72197 14944 ft 217 kts 129°
2026-04-19 18:49 61.97904 -132.69591 14942 ft 217 kts 129°
2026-04-19 18:49 61.97016 -132.67000 14945 ft 217 kts 129°
2026-04-19 18:49 61.96125 -132.64403 14949 ft 217 kts 128°
2026-04-19 18:50 61.95235 -132.61808 14953 ft 217 kts 129°
2026-04-19 18:50 61.94344 -132.59208 14955 ft 218 kts 129°
2026-04-19 18:50 61.93451 -132.56615 14955 ft 218 kts 129°
2026-04-19 18:50 61.92555 -132.54018 14955 ft 218 kts 129°
2026-04-19 18:51 61.91672 -132.51456 14955 ft 218 kts 129°
2026-04-19 18:51 61.90776 -132.48857 14956 ft 218 kts 128°
2026-04-19 18:51 61.89883 -132.46269 14955 ft 218 kts 128°
2026-04-19 18:52 61.88089 -132.41092 14954 ft 218 kts 128°
2026-04-19 18:52 61.87190 -132.38500 14954 ft 219 kts 128°
2026-04-19 18:52 61.86290 -132.35904 14955 ft 219 kts 129°
2026-04-19 18:52 61.85386 -132.33302 14957 ft 219 kts 129°
2026-04-19 18:53 61.84481 -132.30703 14959 ft 219 kts 129°
2026-04-19 18:53 61.83574 -132.28104 14962 ft 220 kts 129°
2026-04-19 18:53 61.82667 -132.25504 14961 ft 220 kts 129°
2026-04-19 18:53 61.81760 -132.22900 14960 ft 219 kts 128°
2026-04-19 18:54 61.80864 -132.20338 14960 ft 220 kts 128°
2026-04-19 18:54 61.79942 -132.17704 14959 ft 220 kts 129°
2026-04-19 18:54 61.79046 -132.15137 14958 ft 220 kts 128°
2026-04-19 18:54 61.78133 -132.12546 14959 ft 221 kts 129°
2026-04-19 18:55 61.77216 -132.09939 14960 ft 220 kts 129°
2026-04-19 18:55 61.76306 -132.07347 14961 ft 219 kts 128°
2026-04-19 18:55 61.75396 -132.04758 14961 ft 219 kts 129°
2026-04-19 18:55 61.74487 -132.02175 14961 ft 219 kts 128°
2026-04-19 18:56 61.73578 -131.99584 14962 ft 219 kts 129°
2026-04-19 18:56 61.72663 -131.97002 14963 ft 220 kts 129°
2026-04-19 18:56 61.71746 -131.94410 14963 ft 220 kts 129°
2026-04-19 18:56 61.70832 -131.91825 14964 ft 220 kts 129°
2026-04-19 18:57 61.69914 -131.89237 14965 ft 221 kts 129°
2026-04-19 18:57 61.68996 -131.86649 14963 ft 220 kts 129°
2026-04-19 18:57 61.68094 -131.84110 14966 ft 220 kts 129°
2026-04-19 18:57 61.67176 -131.81527 14963 ft 220 kts 129°
2026-04-19 18:58 61.66263 -131.78956 14967 ft 219 kts 129°
2026-04-19 18:58 61.65343 -131.76376 14968 ft 220 kts 129°
2026-04-19 18:58 61.64422 -131.73799 14964 ft 220 kts 129°
2026-04-19 18:58 61.63509 -131.71239 14963 ft 218 kts 129°
2026-04-19 18:59 61.62605 -131.68703 14961 ft 217 kts 129°
2026-04-19 18:59 61.61700 -131.66177 14966 ft 217 kts 129°
2026-04-19 18:59 61.60784 -131.63621 14969 ft 219 kts 129°
2026-04-19 18:59 61.59869 -131.61066 14972 ft 219 kts 129°
2026-04-19 19:00 61.58950 -131.58516 14976 ft 219 kts 130°
2026-04-19 19:00 61.58030 -131.55958 14978 ft 219 kts 129°
2026-04-19 19:00 61.57121 -131.53429 14979 ft 220 kts 130°
2026-04-19 19:00 61.56199 -131.50864 14983 ft 220 kts 130°
2026-04-19 19:01 61.55276 -131.48308 14980 ft 219 kts 130°
2026-04-19 19:01 61.54357 -131.45759 14980 ft 219 kts 130°
2026-04-19 19:01 61.53435 -131.43213 14983 ft 219 kts 130°
2026-04-19 19:01 61.52513 -131.40664 14981 ft 220 kts 130°
2026-04-19 19:02 61.51589 -131.38110 14982 ft 220 kts 130°
2026-04-19 19:02 61.50664 -131.35562 14983 ft 220 kts 130°
2026-04-19 19:02 61.49735 -131.33008 14973 ft 219 kts 130°
2026-04-19 19:02 61.48816 -131.30475 14978 ft 218 kts 130°
2026-04-19 19:03 61.47901 -131.27951 14973 ft 217 kts 130°
2026-04-19 19:03 61.46986 -131.25435 14976 ft 217 kts 130°
2026-04-19 19:03 61.46077 -131.22946 14974 ft 218 kts 130°
2026-04-19 19:03 61.45157 -131.20436 14976 ft 218 kts 130°
2026-04-19 19:04 61.44237 -131.17916 14982 ft 219 kts 130°
2026-04-19 19:04 61.43313 -131.15392 14975 ft 218 kts 131°